| time (UTC) | temp F | wind direction | speed MPH | gust MPH | rain 1hr in | rain 24hr in | rain mn in | humidity % | barometer mb |
| 20260906074503 | 61 | 0 | 0.0 | 0.0 | 0.00 | 0.00 | 0.00 | 69 | 988.8 |
| 20260906073603 | 61 | 0 | 0.0 | 0.0 | 0.00 | 0.00 | 0.00 | 69 | 988.8 |
| 20260906072917 | 60 | 0 | 0.0 | 0.0 | 0.00 | 0.00 | 0.00 | 70 | 989.1 |
| 20260906071803 | 61 | 96 | 0.0 | 1.0 | 0.00 | 0.00 | 0.00 | 70 | 988.8 |
| 20260906070903 | 62 | 96 | 0.0 | 1.0 | 0.00 | 0.00 | 0.00 | 67 | 988.8 |
| 20260906070003 | 63 | 0 | 0.0 | 0.0 | 0.00 | 0.00 | 0.00 | 66 | 988.8 |
| 20260906065403 | 63 | 0 | 0.0 | 0.0 | 0.00 | 0.00 | 0.00 | 66 | 989.0 |
| 20260906064504 | 63 | 0 | 0.0 | 0.0 | 0.00 | 0.00 | 0.00 | 67 | 988.7 |
| 20260906063603 | 63 | 0 | 0.0 | 0.0 | 0.00 | 0.00 | 0.00 | 65 | 988.7 |
| 20260906062703 | 64 | 0 | 0.0 | 0.0 | 0.00 | 0.00 | 0.00 | 65 | 988.8 |
| 20260906061803 | 64 | 95 | 0.0 | 1.0 | 0.00 | 0.00 | 0.00 | 65 | 988.6 |
| 20260906060903 | 64 | 0 | 0.0 | 0.0 | 0.00 | 0.00 | 0.00 | 64 | 988.6 |
| 20260906060006 | 68 | 3 | 1.0 | 3.0 | 0.00 | 0.00 | 0.00 | 56 | 988.7 |
| 20260906055403 | 68 | 22 | 1.0 | 3.0 | 0.00 | 0.00 | 0.00 | 56 | 988.5 |
| 20260906054503 | 69 | 36 | 1.0 | 2.0 | 0.00 | 0.00 | 0.00 | 54 | 988.6 |
| 20260906053604 | 69 | 36 | 1.0 | 2.0 | 0.00 | 0.00 | 0.00 | 53 | 988.6 |
| 20260906052703 | 70 | 36 | 0.0 | 2.0 | 0.00 | 0.00 | 0.00 | 51 | 988.7 |
| 20260906052018 | 70 | 36 | 0.0 | 2.0 | 0.00 | 0.00 | 0.00 | 52 | 988.6 |
| 20260906051117 | 70 | 10 | 2.0 | 4.0 | 0.00 | 0.00 | 0.00 | 50 | 988.5 |
| 20260906050003 | 70 | 4 | 1.0 | 3.0 | 0.00 | 0.00 | 0.00 | 54 | 988.7 |
| 20260906045403 | 70 | 352 | 1.0 | 3.0 | 0.00 | 0.00 | 0.00 | 54 | 988.6 |
| 20260906044503 | 70 | 290 | 1.0 | 3.0 | 0.00 | 0.00 | 0.00 | 52 | 988.5 |
| 20260906043603 | 70 | 289 | 1.0 | 3.0 | 0.00 | 0.00 | 0.00 | 51 | 988.4 |
| 20260906042918 | 71 | 289 | 1.0 | 3.0 | 0.00 | 0.00 | 0.00 | 51 | 988.3 |
| 20260906041803 | 72 | 289 | 1.0 | 3.0 | 0.00 | 0.00 | 0.00 | 51 | 988.2 |
| 20260906040903 | 73 | 288 | 1.0 | 3.0 | 0.00 | 0.00 | 0.00 | 51 | 988.0 |
| 20260906040218 | 73 | 288 | 1.0 | 3.0 | 0.00 | 0.00 | 0.00 | 50 | 988.1 |
| 20260906035403 | 74 | 288 | 0.0 | 3.0 | 0.00 | 0.00 | 0.00 | 48 | 988.0 |
| 20260906034503 | 75 | 316 | 1.0 | 4.0 | 0.00 | 0.00 | 0.00 | 47 | 987.9 |
| 20260906033603 | 75 | 22 | 2.0 | 5.0 | 0.00 | 0.00 | 0.00 | 43 | 987.7 |
| 20260906032703 | 74 | 17 | 2.0 | 7.0 | 0.00 | 0.00 | 0.00 | 44 | 987.7 |
| 20260906031804 | 74 | 20 | 3.0 | 7.0 | 0.00 | 0.00 | 0.00 | 45 | 987.7 |
| 20260906030903 | 74 | 329 | 2.0 | 3.0 | 0.00 | 0.00 | 0.00 | 47 | 987.7 |
| 20260906030003 | 74 | 315 | 1.0 | 2.0 | 0.00 | 0.00 | 0.00 | 48 | 987.6 |
| 20260906025403 | 74 | 315 | 1.0 | 2.0 | 0.00 | 0.00 | 0.00 | 47 | 987.5 |
| 20260906024503 | 75 | 315 | 0.0 | 2.0 | 0.00 | 0.00 | 0.00 | 47 | 987.4 |
| 20260906023603 | 76 | 292 | 1.0 | 3.0 | 0.00 | 0.00 | 0.00 | 45 | 987.3 |
| 20260906022703 | 77 | 250 | 0.0 | 1.0 | 0.00 | 0.00 | 0.00 | 45 | 987.1 |
| 20260906021803 | 78 | 250 | 0.0 | 2.0 | 0.00 | 0.00 | 0.00 | 42 | 987.0 |
| 20260906020904 | 78 | 250 | 0.0 | 3.0 | 0.00 | 0.00 | 0.00 | 40 | 986.8 |
| 20260906020003 | 80 | 60 | 2.0 | 5.0 | 0.00 | 0.00 | 0.00 | 39 | 986.6 |
| 20260906015403 | 81 | 64 | 1.0 | 4.0 | 0.00 | 0.00 | 0.00 | 37 | 986.5 |
| 20260906014503 | 82 | 63 | 2.0 | 4.0 | 0.00 | 0.00 | 0.00 | 33 | 986.3 |
| 20260906013603 | 83 | 63 | 4.0 | 7.0 | 0.00 | 0.00 | 0.00 | 32 | 986.3 |
| 20260906012703 | 83 | 62 | 5.0 | 9.0 | 0.00 | 0.00 | 0.00 | 32 | 986.3 |
| 20260906011803 | 84 | 67 | 5.0 | 9.0 | 0.00 | 0.00 | 0.00 | 31 | 986.3 |
| 20260906010903 | 84 | 64 | 5.0 | 9.0 | 0.00 | 0.00 | 0.00 | 31 | 986.2 |
| 20260906010004 | 84 | 64 | 5.0 | 10.0 | 0.00 | 0.00 | 0.00 | 30 | 986.4 |
| 20260906005403 | 84 | 55 | 7.0 | 13.0 | 0.00 | 0.00 | 0.00 | 31 | 986.5 |
| 20260906004503 | 85 | 56 | 7.0 | 13.0 | 0.00 | 0.00 | 0.00 | 32 | 986.3 |
| 20260906003603 | 86 | 65 | 7.0 | 15.0 | 0.00 | 0.00 | 0.00 | 30 | 986.2 |
| 20260906002703 | 86 | 63 | 7.0 | 13.0 | 0.00 | 0.00 | 0.00 | 30 | 986.0 |
| 20260906002018 | 86 | 60 | 8.0 | 13.0 | 0.00 | 0.00 | 0.00 | 30 | 985.9 |
| 20260906000903 | 87 | 70 | 7.0 | 14.0 | 0.00 | 0.00 | 0.00 | 30 | 985.9 |
| 20260906000003 | 87 | 65 | 9.0 | 18.0 | 0.00 | 0.00 | 0.00 | 30 | 985.8 |
| 20260905235404 | 88 | 61 | 8.0 | 18.0 | 0.00 | 0.00 | 0.00 | 30 | 985.7 |
| 20260905234503 | 88 | 63 | 10.0 | 18.0 | 0.00 | 0.00 | 0.00 | 31 | 985.8 |
| 20260905233817 | 88 | 64 | 7.0 | 17.0 | 0.00 | 0.00 | 0.00 | 31 | 985.7 |
| 20260905232703 | 89 | 73 | 10.0 | 18.0 | 0.00 | 0.00 | 0.00 | 28 | 985.8 |
| 20260905232018 | 90 | 94 | 9.0 | 18.0 | 0.00 | 0.00 | 0.00 | 28 | 985.7 |
| 20260905231117 | 90 | 78 | 7.0 | 13.0 | 0.00 | 0.00 | 0.00 | 27 | 985.6 |
| 20260905230218 | 89 | 57 | 9.0 | 17.0 | 0.00 | 0.00 | 0.00 | 27 | 985.6 |
| 20260905225403 | 90 | 63 | 10.0 | 22.0 | 0.00 | 0.00 | 0.00 | 26 | 985.5 |
| 20260905224504 | 91 | 128 | 4.0 | 10.0 | 0.00 | 0.00 | 0.00 | 23 | 985.5 |
| 20260905223603 | 90 | 131 | 7.0 | 15.0 | 0.00 | 0.00 | 0.00 | 23 | 985.5 |
| 20260905222703 | 90 | 152 | 7.0 | 17.0 | 0.00 | 0.00 | 0.00 | 24 | 985.4 |
| 20260905221803 | 90 | 138 | 7.0 | 12.0 | 0.00 | 0.00 | 0.00 | 26 | 985.5 |
| 20260905220903 | 91 | 138 | 6.0 | 12.0 | 0.00 | 0.00 | 0.00 | 26 | 985.6 |
| 20260905220218 | 91 | 141 | 5.0 | 8.0 | 0.00 | 0.00 | 0.00 | 25 | 985.6 |
| 20260905215403 | 91 | 143 | 5.0 | 9.0 | 0.00 | 0.00 | 0.00 | 22 | 985.6 |
| 20260905214503 | 91 | 144 | 6.0 | 11.0 | 0.00 | 0.00 | 0.00 | 22 | 985.6 |
| 20260905213604 | 92 | 150 | 6.0 | 11.0 | 0.00 | 0.00 | 0.00 | 24 | 985.7 |
| 20260905212917 | 92 | 153 | 4.0 | 11.0 | 0.00 | 0.00 | 0.00 | 22 | 985.7 |
| 20260905211803 | 95 | 216 | 3.0 | 9.0 | 0.00 | 0.00 | 0.00 | 19 | 985.7 |
| 20260905210903 | 95 | 215 | 1.0 | 4.0 | 0.00 | 0.00 | 0.00 | 22 | 985.7 |
| 20260905210217 | 94 | 202 | 1.0 | 4.0 | 0.00 | 0.00 | 0.00 | 23 | 985.8 |
| 20260905205403 | 92 | 217 | 1.0 | 4.0 | 0.00 | 0.00 | 0.00 | 23 | 986.0 |
| 20260905204503 | 93 | 242 | 1.0 | 5.0 | 0.00 | 0.00 | 0.00 | 25 | 986.0 |
| 20260905203603 | 93 | 193 | 0.0 | 3.0 | 0.00 | 0.00 | 0.00 | 24 | 986.2 |
| 20260905202704 | 92 | 203 | 0.0 | 3.0 | 0.00 | 0.00 | 0.00 | 21 | 986.2 |
| 20260905201803 | 93 | 95 | 0.0 | 2.0 | 0.00 | 0.00 | 0.00 | 21 | 986.3 |
| 20260905200903 | 94 | 118 | 0.0 | 2.0 | 0.00 | 0.00 | 0.00 | 24 | 986.3 |
| 20260905200217 | 95 | 162 | 1.0 | 6.0 | 0.00 | 0.00 | 0.00 | 18 | 986.5 |
| 20260905195403 | 97 | 203 | 2.0 | 5.0 | 0.00 | 0.00 | 0.00 | 18 | 986.5 |
| 20260905194503 | 95 | 233 | 1.0 | 2.0 | 0.00 | 0.00 | 0.00 | 19 | 986.7 |
| 20260905193603 | 95 | 116 | 1.0 | 4.0 | 0.00 | 0.00 | 0.00 | 23 | 986.8 |
| 20260905192703 | 94 | 209 | 1.0 | 6.0 | 0.00 | 0.00 | 0.00 | 21 | 987.0 |
| 20260905191804 | 93 | 94 | 1.0 | 3.0 | 0.00 | 0.00 | 0.00 | 22 | 987.2 |
| 20260905190903 | 94 | 174 | 1.0 | 3.0 | 0.00 | 0.00 | 0.00 | 23 | 987.3 |
| 20260905190217 | 94 | 135 | 1.0 | 3.0 | 0.00 | 0.00 | 0.00 | 22 | 987.5 |
| 20260905185403 | 94 | 99 | 0.0 | 2.0 | 0.00 | 0.00 | 0.00 | 22 | 987.6 |
| 20260905184718 | 94 | 92 | 0.0 | 2.0 | 0.00 | 0.00 | 0.00 | 20 | 987.7 |
| 20260905183817 | 92 | 74 | 0.0 | 2.0 | 0.00 | 0.00 | 0.00 | 21 | 987.8 |
| 20260905182703 | 92 | 70 | 1.0 | 4.0 | 0.00 | 0.00 | 0.00 | 28 | 987.9 |
| 20260905181803 | 92 | 75 | 1.0 | 3.0 | 0.00 | 0.00 | 0.00 | 22 | 988.1 |
| 20260905180904 | 91 | 71 | 1.0 | 3.0 | 0.00 | 0.00 | 0.00 | 22 | 988.2 |
| 20260905180003 | 90 | 79 | 1.0 | 3.0 | 0.00 | 0.00 | 0.00 | 26 | 988.4 |
| 20260905175403 | 90 | 72 | 2.0 | 5.0 | 0.00 | 0.00 | 0.00 | 31 | 988.4 |
| 20260905174717 | 90 | 73 | 3.0 | 6.0 | 0.00 | 0.00 | 0.00 | 25 | 988.5 |
| 20260905173603 | 89 | 79 | 3.0 | 8.0 | 0.00 | 0.00 | 0.00 | 30 | 988.6 |
| 20260905172703 | 88 | 68 | 3.0 | 9.0 | 0.00 | 0.00 | 0.00 | 27 | 988.8 |
| 20260905171803 | 88 | 75 | 3.0 | 8.0 | 0.00 | 0.00 | 0.00 | 27 | 988.8 |
| 20260905170903 | 87 | 74 | 4.0 | 9.0 | 0.00 | 0.00 | 0.00 | 32 | 988.9 |
| 20260905170004 | 86 | 75 | 4.0 | 8.0 | 0.00 | 0.00 | 0.00 | 33 | 989.0 |
| 20260905165403 | 86 | 76 | 3.0 | 7.0 | 0.00 | 0.00 | 0.00 | 31 | 989.0 |
| 20260905164503 | 85 | 74 | 4.0 | 8.0 | 0.00 | 0.00 | 0.00 | 34 | 989.0 |
| 20260905163603 | 84 | 76 | 4.0 | 8.0 | 0.00 | 0.00 | 0.00 | 35 | 989.1 |
| 20260905162703 | 82 | 79 | 4.0 | 8.0 | 0.00 | 0.00 | 0.00 | 38 | 989.1 |
| 20260905161803 | 81 | 76 | 6.0 | 13.0 | 0.00 | 0.00 | 0.00 | 40 | 989.2 |
| 20260905160903 | 80 | 78 | 6.0 | 11.0 | 0.00 | 0.00 | 0.00 | 40 | 989.4 |
| 20260905160003 | 78 | 79 | 4.0 | 9.0 | 0.00 | 0.00 | 0.00 | 43 | 989.6 |
| 20260905155404 | 77 | 79 | 3.0 | 8.0 | 0.00 | 0.00 | 0.00 | 47 | 989.6 |
| 20260905154503 | 74 | 80 | 3.0 | 8.0 | 0.00 | 0.00 | 0.00 | 52 | 989.8 |
| 20260905153603 | 74 | 81 | 2.0 | 8.0 | 0.00 | 0.00 | 0.00 | 47 | 989.7 |
| 20260905152703 | 74 | 81 | 2.0 | 5.0 | 0.00 | 0.00 | 0.00 | 49 | 989.8 |
| 20260905152017 | 75 | 16 | 4.0 | 10.0 | 0.00 | 0.00 | 0.00 | 47 | 989.8 |
| 20260905150903 | 76 | 273 | 5.0 | 12.0 | 0.00 | 0.00 | 0.00 | 39 | 989.8 |
| 20260905150003 | 76 | 274 | 5.0 | 11.0 | 0.00 | 0.00 | 0.00 | 41 | 989.9 |
| 20260905145403 | 75 | 276 | 4.0 | 12.0 | 0.00 | 0.00 | 0.00 | 41 | 990.0 |
| 20260905144504 | 75 | 301 | 3.0 | 9.0 | 0.00 | 0.00 | 0.00 | 46 | 990.0 |
| 20260905143817 | 74 | 309 | 7.0 | 13.0 | 0.00 | 0.00 | 0.00 | 44 | 990.1 |
| 20260905142703 | 74 | 305 | 4.0 | 12.0 | 0.00 | 0.00 | 0.00 | 44 | 990.2 |
| 20260905141803 | 72 | 316 | 2.0 | 5.0 | 0.00 | 0.00 | 0.00 | 49 | 990.2 |
| 20260905140903 | 70 | 300 | 1.0 | 3.0 | 0.00 | 0.00 | 0.00 | 54 | 990.2 |
| 20260905140004 | 68 | 307 | 2.0 | 5.0 | 0.00 | 0.00 | 0.00 | 55 | 990.2 |
| 20260905135616 | 68 | 308 | 2.0 | 5.0 | 0.00 | 0.00 | 0.00 | 55 | 990.2 |
| 20260905134718 | 67 | 308 | 3.0 | 9.0 | 0.00 | 0.00 | 0.00 | 54 | 990.2 |
| 20260905133604 | 67 | 320 | 3.0 | 6.0 | 0.00 | 0.00 | 0.00 | 51 | 990.2 |
| 20260905132703 | 68 | 333 | 4.0 | 9.0 | 0.00 | 0.00 | 0.00 | 50 | 990.2 |
| 20260905131803 | 67 | 318 | 5.0 | 10.0 | 0.00 | 0.00 | 0.00 | 50 | 990.1 |
| 20260905130903 | 67 | 317 | 5.0 | 10.0 | 0.00 | 0.00 | 0.00 | 51 | 990.1 |
| 20260905130004 | 66 | 319 | 5.0 | 11.0 | 0.00 | 0.00 | 0.00 | 51 | 990.0 |
| 20260905125403 | 66 | 318 | 5.0 | 11.0 | 0.00 | 0.00 | 0.00 | 51 | 989.9 |
| 20260905124717 | 66 | 299 | 2.0 | 8.0 | 0.00 | 0.00 | 0.00 | 52 | 989.8 |
| 20260905123817 | 66 | 312 | 4.0 | 12.0 | 0.00 | 0.00 | 0.00 | 52 | 989.6 |
| 20260905122704 | 65 | 307 | 5.0 | 13.0 | 0.00 | 0.00 | 0.00 | 53 | 989.5 |
| 20260905121803 | 64 | 319 | 4.0 | 9.0 | 0.00 | 0.00 | 0.00 | 56 | 989.4 |
| 20260905120903 | 65 | 325 | 2.0 | 5.0 | 0.00 | 0.00 | 0.00 | 56 | 989.5 |
| 20260905120003 | 66 | 324 | 4.0 | 8.0 | 0.00 | 0.00 | 0.00 | 54 | 989.7 |
| 20260905115403 | 66 | 324 | 4.0 | 8.0 | 0.00 | 0.00 | 0.00 | 54 | 989.6 |
| 20260905114503 | 66 | 312 | 5.0 | 11.0 | 0.00 | 0.00 | 0.00 | 53 | 989.5 |
| 20260905113603 | 65 | 321 | 7.0 | 13.0 | 0.00 | 0.00 | 0.00 | 54 | 989.5 |
| 20260905112918 | 64 | 321 | 5.0 | 13.0 | 0.00 | 0.00 | 0.00 | 56 | 989.5 |
| 20260905111804 | 64 | 327 | 2.0 | 6.0 | 0.00 | 0.00 | 0.00 | 60 | 989.6 |
| 20260905110903 | 63 | 338 | 4.0 | 9.0 | 0.00 | 0.00 | 0.00 | 59 | 989.5 |
| 20260905110218 | 62 | 350 | 4.0 | 9.0 | 0.00 | 0.00 | 0.00 | 61 | 989.4 |
| 20260905105403 | 61 | 343 | 2.0 | 6.0 | 0.00 | 0.00 | 0.00 | 62 | 989.3 |
| 20260905104503 | 62 | 324 | 0.0 | 2.0 | 0.00 | 0.00 | 0.00 | 63 | 989.3 |
| 20260905103603 | 62 | 323 | 0.0 | 1.0 | 0.00 | 0.00 | 0.00 | 62 | 989.3 |
| 20260905102703 | 62 | 325 | 2.0 | 7.0 | 0.00 | 0.00 | 0.00 | 60 | 989.3 |
| 20260905102017 | 62 | 330 | 4.0 | 8.0 | 0.00 | 0.00 | 0.00 | 61 | 989.3 |
| 20260905100904 | 61 | 341 | 3.0 | 6.0 | 0.00 | 0.00 | 0.00 | 63 | 989.0 |
| 20260905100004 | 60 | 341 | 1.0 | 8.0 | 0.00 | 0.00 | 0.00 | 64 | 989.1 |
| 20260905095403 | 60 | 323 | 1.0 | 8.0 | 0.00 | 0.00 | 0.00 | 65 | 989.1 |
| 20260905094503 | 60 | 320 | 1.0 | 4.0 | 0.00 | 0.00 | 0.00 | 66 | 989.1 |
| 20260905093603 | 60 | 319 | 1.0 | 3.0 | 0.00 | 0.00 | 0.00 | 65 | 988.9 |
| 20260905092703 | 61 | 319 | 2.0 | 4.0 | 0.00 | 0.00 | 0.00 | 65 | 988.9 |
| 20260905091803 | 60 | 319 | 2.0 | 4.0 | 0.00 | 0.00 | 0.00 | 65 | 989.0 |
| 20260905090903 | 61 | 302 | 2.0 | 3.0 | 0.00 | 0.00 | 0.00 | 66 | 989.0 |
| 20260905090004 | 61 | 294 | 2.0 | 4.0 | 0.00 | 0.00 | 0.00 | 65 | 989.0 |
| 20260905085403 | 61 | 300 | 2.0 | 4.0 | 0.00 | 0.00 | 0.00 | 65 | 988.9 |
| 20260905084503 | 62 | 301 | 2.0 | 4.0 | 0.00 | 0.00 | 0.00 | 66 | 988.9 |
| 20260905083603 | 62 | 300 | 1.0 | 4.0 | 0.00 | 0.00 | 0.00 | 65 | 989.0 |
| 20260905082703 | 63 | 300 | 0.0 | 4.0 | 0.00 | 0.00 | 0.00 | 63 | 989.0 |
| 20260905081803 | 63 | 320 | 3.0 | 6.0 | 0.00 | 0.00 | 0.00 | 62 | 988.9 |
| 20260905080903 | 63 | 320 | 2.0 | 7.0 | 0.00 | 0.00 | 0.00 | 63 | 988.8 |
| 20260905080003 | 63 | 352 | 1.0 | 5.0 | 0.00 | 0.00 | 0.00 | 63 | 988.9 |
| 20260905075404 | 63 | 67 | 0.0 | 2.0 | 0.00 | 0.00 | 0.00 | 62 | 988.9 |